CAPE
1 2 0 1 1 2 2 0 2 0 0 0 1 1 0 0 0 0 0 0 0 832 268 35 221 712 134 261 51 45 198 5 15 56 53 24 21 19 39 155 150 170 159 342 500
1 2 1 2 1 2 0 0 0 0 0 0 1 1 0 0 0 0 0 38 742 882 935 874 273 549 34 200 709 344 263 48 43 43 40 23 15 8 74 96 221 204 257 404 357
2 3 1 1 1 1 0 1 0 0 0 1 1 0 0 0 0 0 275 1183 598 991 4 554 644 32 128 132 507 572 521 178 167 43 3 18 0 5 2 99 161 239 264 318 229
3 3 0 0 1 0 0 0 0 1 2 1 1 0 0 0 0 157 1296 934 861 340 47 515 852 159 157 235 154 264 225 97 183 161 6 0 0 0 0 18 185 204 221 253 189
1 0 0 1 1 0 0 0 0 0 2 1 0 0 0 0 0 1017 1439 1020 239 174 508 766 464 379 468 293 106 260 304 121 164 75 10 19 40 20 4 73 204 209 194 168 164
0 1 1 0 0 0 0 0 0 0 2 1 0 0 0 0 27 785 278 154 4 13 24 235 301 247 319 165 190 285 337 39 45 0 63 35 0 0 0 76 138 159 128 133 140
0 1 1 1 0 0 0 0 0 0 1 0 0 0 0 0 39 53 240 238 126 74 68 14 166 281 272 164 177 265 23 94 40 17 2 0 0 0 0 0 52 88 82 112 132
1 1 1 1 1 1 0 0 1 0 0 0 0 0 0 0 5 10 0 133 246 551 358 52 67 18 94 33 194 132 69 17 22 105 61 1 0 0 0 0 0 0 19 52 48
0 1 0 1 0 0 0 1 0 0 0 0 0 0 0 0 23 0 23 167 191 246 325 90 123 70 0 30 8 31 129 45 27 99 19 13 17 0 0 0 0 0 0 0 0
0 2 0 0 0 0 1 0 0 0 0 0 0 0 0 101 192 69 44 138 202 167 297 228 162 12 0 4 10 57 189 98 70 254 22 2 5 0 0 0 0 0 0 0 0
0 0 0 1 2 0 0 0 0 0 0 0 0 0 0 0 123 279 310 351 440 256 153 100 164 134 15 17 19 72 230 345 266 348 73 50 17 0 0 0 0 0 0 0 0
3 2 0 0 0 0 0 0 0 0 0 0 0 0 0 0 0 0 284 326 407 405 55 0 0 0 27 10 13 143 302 330 344 299 51 11 5 18 1 0 0 0 0 0 0
1 2 0 0 1 0 0 0 0 0 0 0 0 0 0 0 0 0 5 0 16 16 2 0 0 0 105 36 35 34 74 248 102 422 156 37 0 0 0 0 0 0 0 3 24
2 1 0 0 0 0 0 0 0 0 0 0 0 0 0 0 0 0 0 5 12 85 20 8 62 96 70 153 21 51 70 224 472 290 116 21 11 0 0 0 1 0 0 8 66
1 1 0 1 0 0 0 0 0 0 0 0 0 0 0 0 0 0 0 24 106 149 26 102 0 0 342 396 44 155 137 381 557 49 12 20 1 0 0 6 1 0 0 7 48
0 1 0 0 0 0 0 0 0 0 0 0 0 0 0 0 0 0 0 0 0 49 0 11 0 0 3 229 132 81 270 34 35 0 77 24 11 16 0 28 29 25 2 3 36
0 0 0 0 0 0 0 0 0 0 0 0 0 0 0 0 0 0 0 0 0 0 0 0 0 0 0 0 131 189 89 5 112 156 184 0 2 81 0 0 19 28 13 10 50
0 0 0 0 0 0 0 0 0 0 0 0 0 0 0 0 0 0 0 0 0 0 0 0 0 0 0 0 0 270 0 0 0 24 0 15 50 0 45 0 113 437 253 13 113
0 0 0 0 0 0 0 0 0 0 0 0 0 0 0 0 0 0 0 0 0 0 0 0 0 0 0 0 0 0 0 0 0 0 0 2 29 163 46 183 260 421 386 590 560
0 0 0 0 0 0 0 0 0 0 0 0 0 0 0 0 0 0 0 0 0 0 0 0 0 0 0 0 0 0 0 0 0 0 0 0 416 160 210 12 11 22 47 3 2
0 0 0 0 0 0 0 0 0 0 0 0 0 0 0 0 0 0 0 0 0 0 0 0 0 0 0 0 0 0 0 0 0 0 0 0 302 875 212 19 12 7 4 3 3
0 0 0 0 0 0 0 0 0 0 0 0 0 0 0 0 0 0 0 0 0 0 0 0 0 0 0 0 0 0 0 0 0 0 0 0 0 430 201 7 2 2 2 1 1
0 0 0 0 0 0 0 0 0 0 0 0 0 0 0 0 0 0 0 0 0 0 0 0 0 0 0 0 0 0 0 0 0 0 0 0 0 310 179 200 62 4 1 0 1
0 0 0 0 0 0 0 0 0 0 0 0 0 0 0 0 0 0 0 0 0 0 12 0 0 0 0 0 0 0 0 0 0 0 0 0 367 576 365 272 0 2 2 0 1
0 0 0 0 0 0 0 0 0 0 0 0 0 0 0 0 0 0 0 0 0 0 0 0 0 0 0 0 0 0 0 132 145 7 0 14 634 673 392 154 0 0 0 0 0
0 0 0 0 0 0 0 0 0 0 0 0 0 0 0 0 0 0 0 0 0 0 0 0 0 0 0 0 0 0 0 14 96 840 891 864 851 755 279 74 54 6 0 0 0
0 0 0 0 0 0 0 0 0 0 0 0 0 0 0 0 0 0 0 0 0 0 0 0 0 0 0 0 0 3 0 41 346 481 944 839 720 380 353 253 176 81 64 4 0
CIN
0 0 0 0 0 0 0 0 0 0 0 0 0 0 0 0 0 0 0 0 0 -237 -245 -267 -162 -96 -198 -169 -214 -237 -98 -69 -69 -63 -82 -131 -155 -163 -176 -185 -147 -142 -173 -105 -45
0 0 0 0 -1 0 0 0 0 0 0 0 0 0 0 0 0 0 0 -256 -312 -271 -118 -127 -152 -105 -212 -180 -106 -163 -101 -49 -66 -77 -86 -129 -105 -189 -166 -166 -137 -171 -97 -53 -69
0 0 0 0 0 0 0 0 0 0 0 0 0 0 0 0 0 0 -309 -299 -338 -295 -37 -173 -155 -190 -136 -235 -146 -94 -75 -44 -51 -83 -34 -123 0 -151 -20 -152 -161 -202 -145 -82 -99
0 0 0 0 0 0 0 0 0 0 0 0 0 0 0 0 0 -199 -304 -347 -327 -243 -251 -156 -114 -154 -126 -116 -135 -88 -52 -70 -79 -71 -103 0 0 0 0 -107 -136 -151 -153 -122 -94
0 0 0 0 0 0 0 0 0 0 0 0 0 0 0 0 0 -309 -255 -306 -342 -263 -167 -176 -158 -220 -114 -150 -146 -102 -100 -49 -43 -55 -87 -84 -133 -174 -59 -205 -160 -125 -104 -113 -94
0 0 0 0 0 0 0 0 0 0 0 0 0 0 0 0 -93 -300 -297 -347 -131 -303 -266 -220 -196 -211 -181 -172 -148 -192 -123 -56 -92 0 -140 -80 0 0 0 -175 -153 -123 -116 -105 -90
0 0 0 0 0 0 0 0 0 0 0 0 0 0 0 0 -400 -376 -317 -281 -320 -231 -119 -239 -231 -186 -278 -167 -211 -132 -37 -86 -71 -122 -11 0 0 0 0 0 -121 -167 -110 -107 -98
0 0 0 0 0 0 0 0 0 0 0 0 0 0 0 0 -293 -425 0 -283 -268 -204 -196 -325 -300 -339 -295 -342 -206 -146 -117 -56 -66 -73 -128 -8 0 0 0 0 0 0 -102 -100 -123
0 0 0 0 0 0 0 0 0 0 0 0 0 0 0 -27 -333 0 -324 -182 -234 -229 -203 -205 -265 -323 -21 -231 -175 -223 -52 -70 -32 -45 -77 -109 -101 0 0 0 0 0 0 0 0
0 0 0 0 0 0 0 0 0 0 0 0 0 0 0 -231 -215 -283 -316 -160 -133 -168 -187 -189 -237 -244 0 -222 -57 -117 -97 -73 -77 -100 -95 -35 -53 0 0 0 0 0 0 0 0
0 0 0 0 0 0 0 0 0 0 0 0 0 0 0 0 -214 -159 -158 -117 -60 -120 -133 -169 -119 -100 -85 -166 -114 -77 -81 -99 -111 -79 -114 -204 -179 0 0 0 0 0 0 0 0
0 0 0 0 0 0 0 0 0 0 0 0 0 0 0 0 0 0 -110 -81 -68 -50 -164 0 0 0 -133 -187 -143 -84 -102 -125 -122 -138 -144 -192 -187 -187 -117 0 0 0 0 -29 0
0 0 0 0 0 0 0 0 0 0 0 0 0 0 0 0 0 0 -122 -14 -207 -142 -193 0 -23 0 -112 -174 -137 -177 -158 -175 -144 -150 -177 -193 0 0 0 0 0 0 0 -194 -259
0 0 0 0 0 0 0 0 0 0 0 0 0 0 0 0 0 0 0 -145 -146 -111 -159 -135 -103 -70 -132 -177 -197 -148 -220 -141 -180 -190 -120 -171 -151 0 0 0 -253 0 0 -320 -271
0 0 0 0 0 0 0 0 0 0 0 0 0 0 0 0 0 0 0 -209 -100 -72 -116 -72 0 0 -89 -90 -216 -92 -187 -98 -127 -216 -199 -206 -121 0 -99 -178 -106 0 0 -362 -287
0 0 0 0 0 0 0 0 0 0 0 0 0 0 0 0 0 0 0 0 0 -84 0 -73 0 0 -3 -35 -154 -148 -159 -169 -216 0 -124 -208 -283 -286 0 -406 -400 -413 -268 -245 -342
0 0 0 0 0 0 0 0 0 0 0 0 0 0 0 0 0 0 0 0 0 0 0 0 0 0 0 0 -164 -135 -169 -33 -70 -35 -82 0 -281 -198 0 0 -398 -419 -424 -428 -314
0 0 0 0 0 0 0 0 0 0 0 0 0 0 0 0 0 0 0 0 0 0 0 0 0 0 0 0 0 -151 -12 0 0 -78 0 -274 -174 -1 -495 -28 -539 -457 -415 -407 -262
0 0 0 0 0 0 0 0 0 0 0 0 0 0 0 0 0 0 0 0 0 0 0 0 0 0 0 0 0 0 0 0 0 0 0 -100 -232 -282 -501 -426 -467 -423 -428 -336 -369
0 0 0 0 0 0 0 0 0 0 0 0 0 0 0 0 0 0 0 0 0 0 0 0 0 0 0 0 0 0 0 0 0 0 0 0 -119 -154 -383 -251 -275 -557 -494 0 0
0 0 0 0 0 0 0 0 0 0 0 0 0 0 0 0 0 0 0 0 0 0 0 0 0 0 0 0 0 0 0 0 0 0 0 0 -75 -222 -407 -529 -442 0 0 0 0
0 0 0 0 0 0 0 0 0 0 0 0 0 0 0 0 0 0 0 0 0 0 0 0 0 0 0 0 0 0 0 0 0 0 0 0 0 -327 -378 -249 0 0 0 0 0
0 0 0 0 0 0 0 0 0 0 0 0 0 0 0 0 0 0 0 0 0 0 0 0 0 0 0 0 0 0 0 0 0 0 0 0 0 -322 -364 -350 -428 -424 0 0 0
0 0 0 0 0 0 0 0 0 0 0 0 0 0 0 0 0 0 0 0 0 0 -205 0 0 0 0 0 0 0 0 0 0 0 0 0 -325 -287 -325 -344 0 0 0 0 0
0 0 0 0 0 0 0 0 0 0 0 0 0 0 0 0 0 0 0 0 0 0 0 0 0 0 0 0 0 0 0 -289 -163 -17 0 -119 -329 -303 -362 -421 0 0 0 0 0
0 0 0 0 0 0 0 0 0 0 0 0 0 0 0 0 0 0 0 0 0 0 0 0 0 0 0 0 0 0 0 -331 -306 -260 -245 -266 -245 -250 -418 -523 -480 -556 0 0 0
0 0 0 0 0 0 0 0 0 0 0 0 0 0 0 0 0 0 0 0 0 0 0 0 0 0 0 0 0 -200 0 -359 -271 -317 -231 -155 -295 -449 -376 -378 -400 -445 -430 -480 0
Wind_Speed
16 16 16 16 16 15 15 15 15 13 12 11 12 13 10 12 12 3 4 6 7 12 17 10 3 2 2 5 1 1 1 3 6 7 6 14 9 7 6 11 3 2 8 13 16
16 16 17 17 16 16 15 15 15 13 12 12 13 13 11 9 3 5 5 10 14 15 15 13 7 7 1 3 3 2 2 3 5 6 13 11 16 8 7 7 10 17 15 17 16
17 17 17 17 17 17 15 15 14 14 13 13 13 12 11 7 1 3 10 12 17 13 10 13 16 6 2 1 5 1 4 6 6 15 19 16 12 5 16 7 17 21 20 19 16
17 18 18 17 17 17 16 15 14 14 14 13 12 11 11 2 5 3 18 17 14 10 10 11 5 2 2 2 6 4 6 5 8 13 14 17 12 9 3 7 14 16 21 19 17
19 19 19 18 18 17 17 16 14 14 14 12 11 10 3 1 5 5 15 14 8 12 11 11 8 1 0 5 7 2 8 13 11 12 14 15 9 11 5 15 16 17 16 16 15
20 20 19 18 18 18 17 16 15 15 13 11 8 8 2 1 4 13 14 9 4 5 7 12 11 7 2 1 2 5 8 6 5 13 17 15 9 5 11 17 18 18 17 15 16
21 20 20 19 19 19 19 18 16 15 12 9 5 3 2 6 11 10 12 6 4 5 6 1 11 4 5 1 3 3 16 12 5 5 8 16 4 6 16 17 18 17 15 14 14
20 20 20 20 20 20 19 19 16 14 9 6 4 2 4 2 9 11 3 1 4 4 6 8 5 4 3 3 4 6 6 3 2 6 8 5 4 8 13 17 17 16 14 14 14
21 20 20 20 20 20 20 19 15 6 2 7 1 0 4 4 6 6 3 7 3 1 1 7 4 4 5 3 4 8 4 4 6 7 3 3 4 12 13 14 14 14 14 14 13
21 20 21 20 20 19 22 15 4 6 2 4 4 1 1 4 5 7 4 4 5 6 5 1 5 4 3 2 6 5 5 2 3 7 8 3 3 15 15 14 15 14 14 14 14
21 22 21 20 19 17 10 4 3 3 0 7 4 2 2 3 6 5 6 4 0 3 5 6 3 6 11 7 1 12 13 10 5 6 1 6 2 17 16 12 12 12 12 14 13
21 20 22 21 20 15 2 2 3 3 6 8 4 6 4 2 2 6 10 6 5 6 1 1 9 14 10 7 5 6 9 1 3 2 3 1 10 14 15 18 15 10 10 13 13
21 21 23 22 21 2 2 5 2 3 3 7 5 5 5 9 7 8 15 6 5 6 8 8 12 5 11 6 7 4 7 10 5 5 2 0 6 6 7 8 11 10 14 12 16
21 22 22 25 2 3 4 3 6 5 6 7 4 7 4 6 4 5 12 6 4 9 7 6 9 10 10 5 6 6 12 12 11 9 4 5 5 7 12 8 9 15 14 15 13
22 19 18 9 3 1 5 8 3 6 3 1 4 1 3 8 3 4 4 4 7 6 5 9 5 5 4 7 13 11 10 5 7 4 3 2 1 7 7 16 20 15 16 18 17
22 18 13 1 1 7 8 7 6 8 0 1 4 5 5 0 2 3 2 4 2 3 2 7 4 4 7 4 19 8 12 10 5 3 3 8 7 7 7 27 21 12 18 19 19
25 18 5 2 3 6 4 6 7 4 4 1 5 2 3 5 2 6 5 3 6 2 6 5 5 4 4 2 6 9 8 4 2 2 8 2 7 14 5 6 24 18 14 17 17
29 16 8 5 3 6 5 7 2 3 6 4 1 3 4 1 2 1 5 5 4 2 4 4 11 6 5 6 10 14 10 8 8 6 3 5 7 6 10 4 7 8 4 11 15
23 1 2 5 6 1 8 4 7 6 3 5 2 6 3 4 1 2 3 4 5 8 10 7 8 4 4 4 8 4 7 7 8 2 3 5 6 3 13 13 14 14 14 11 9
3 3 4 3 6 6 7 4 5 6 3 1 3 3 3 3 3 3 1 4 3 5 8 4 4 5 3 2 1 7 5 3 3 4 4 5 4 5 3 8 11 13 12 11 13
3 4 4 3 5 7 3 6 6 7 4 3 3 3 3 3 3 1 1 3 5 7 4 5 7 11 3 4 7 1 2 6 6 5 7 3 7 4 7 10 11 11 11 12 12
3 4 3 2 5 2 2 5 5 6 5 3 4 3 4 2 2 1 1 4 6 2 2 2 4 7 14 4 5 2 2 7 6 5 1 4 6 6 8 12 13 11 12 11 12
3 3 4 5 3 4 6 6 4 3 3 2 2 1 0 2 2 2 0 4 3 4 3 4 1 2 8 8 5 5 3 5 5 4 6 6 5 7 9 11 10 15 12 11 13
3 4 6 6 0 2 5 6 7 5 4 4 3 5 4 4 4 2 3 4 7 3 3 7 3 6 7 5 2 4 6 3 5 5 5 6 8 12 13 10 8 7 8 8 4
4 1 1 4 5 5 2 5 5 5 4 8 5 4 2 4 4 4 1 6 5 5 2 5 4 3 4 9 8 6 6 7 4 1 5 6 8 14 14 13 10 8 9 9 8
3 4 5 2 4 5 6 5 3 3 2 2 2 1 4 5 6 4 4 4 7 3 2 2 3 4 6 5 12 7 11 6 4 5 6 7 5 7 5 7 8 9 8 8 10
3 2 3 4 5 3 3 6 7 9 3 2 2 1 3 3 7 6 6 3 3 3 0 3 5 3 5 2 3 9 8 8 2 4 6 4 5 7 8 9 10 9 9 7 6
Wind_Direction
345 350 351 344 339 338 336 332 336 341 334 328 320 317 319 319 312 167 218 198 162 150 129 128 53 132 27 354 182 194 41 176 166 162 131 134 122 180 86 130 162 157 120 140 141
344 347 348 342 336 334 336 334 334 333 327 323 316 314 316 329 281 219 249 152 129 159 115 129 84 93 23 249 209 243 99 222 164 166 143 133 135 132 122 134 103 101 112 136 141
342 344 346 341 334 331 334 333 332 326 321 317 312 311 311 319 228 222 136 136 148 181 135 115 124 144 292 323 315 292 258 136 131 131 135 138 135 116 141 145 159 146 146 153 153
339 344 345 340 332 330 331 330 331 322 315 311 308 312 309 220 124 303 138 148 170 155 145 106 73 123 193 270 217 251 234 223 139 135 138 148 130 142 167 164 157 147 151 154 161
340 342 342 338 333 329 328 326 325 316 310 306 308 313 292 221 240 164 144 161 169 169 154 128 137 119 269 298 322 6 322 136 155 138 137 146 145 141 132 134 135 145 153 161 169
339 340 339 336 332 329 324 322 319 310 304 298 301 304 277 33 102 157 148 159 183 141 143 161 164 193 180 257 30 323 298 124 119 144 141 131 130 95 151 141 147 159 168 172 177
338 338 337 334 332 327 323 319 314 303 296 289 282 269 86 233 144 156 158 175 214 143 156 238 113 129 173 220 149 306 93 99 47 107 106 109 27 157 153 155 158 172 175 177 189
337 337 336 333 332 326 322 317 310 298 285 258 228 249 231 97 142 149 184 218 274 346 20 116 88 83 56 1 31 52 54 43 339 129 154 78 201 160 167 164 175 175 185 187 194
335 335 334 331 330 327 321 312 302 280 233 154 142 34 307 121 171 200 163 173 178 57 12 117 59 48 69 76 59 4 107 30 147 5 128 93 136 181 179 180 184 188 190 197 182
333 332 331 330 329 328 320 302 131 120 206 221 258 354 266 213 171 178 201 173 158 156 75 69 44 35 38 100 192 145 84 87 20 323 35 35 180 176 191 189 197 197 198 197 181
332 330 328 328 325 329 340 94 29 17 260 194 186 248 271 236 126 183 175 170 258 113 180 187 149 197 226 189 9 148 168 150 206 190 181 192 283 194 195 200 208 213 212 210 195
325 323 329 326 322 320 213 109 176 160 313 236 241 276 262 65 29 198 143 159 137 212 213 116 240 230 214 127 114 128 140 105 270 2 107 234 252 212 201 212 208 188 195 196 196
319 322 326 325 319 132 202 232 122 260 133 296 198 202 215 143 204 238 157 181 164 184 187 187 247 252 175 155 145 150 195 181 184 121 40 351 309 200 225 229 229 207 196 192 188
320 325 330 326 357 305 269 235 297 175 67 277 229 270 166 160 239 207 181 145 201 208 186 225 269 262 154 172 137 175 207 188 144 140 214 158 260 245 217 236 231 221 196 195 200
321 327 329 332 283 201 294 328 329 56 59 152 211 120 139 150 199 234 171 93 219 218 111 242 307 311 147 203 170 227 167 148 148 63 343 276 58 261 206 227 230 214 195 196 198
321 322 325 166 253 250 302 316 53 42 281 232 172 180 119 115 243 53 128 64 196 172 230 250 270 225 222 181 185 74 99 42 52 31 295 199 166 268 192 218 229 208 204 188 192
322 315 271 291 216 303 319 42 46 123 325 203 195 116 146 198 261 152 167 185 175 112 284 297 215 255 223 147 70 99 102 63 20 252 236 215 160 249 241 252 219 193 199 191 190
324 318 191 220 282 349 51 52 143 235 266 321 339 92 122 87 287 23 145 178 239 156 115 174 316 184 169 171 168 173 169 161 194 203 225 91 230 277 319 347 95 78 95 187 192
321 342 159 265 188 105 73 83 207 209 250 313 44 81 16 1 2 94 195 259 228 171 167 151 269 274 212 209 140 205 183 195 115 48 102 207 279 62 42 37 55 64 72 61 61
351 351 295 145 146 61 75 222 235 214 316 126 90 92 115 335 42 53 39 285 320 179 138 275 298 210 280 152 118 148 173 78 5 162 244 299 275 200 51 94 89 76 74 63 48
27 47 299 178 65 49 132 237 269 266 208 117 155 118 136 170 183 211 196 303 4 310 137 147 143 278 13 197 193 13 286 42 118 131 164 186 255 346 160 135 108 81 75 69 59
23 60 301 30 52 22 161 206 260 270 351 322 101 97 127 151 154 163 65 214 337 259 355 200 166 210 229 272 304 176 227 144 124 252 116 155 268 97 133 138 116 115 113 102 100
61 273 308 77 63 326 297 284 244 296 226 204 105 78 346 106 66 235 269 253 333 331 346 188 349 17 351 352 355 68 338 124 117 75 187 141 256 133 149 141 147 144 150 159 146
53 29 333 43 115 43 329 308 332 338 65 68 71 73 68 51 20 337 314 305 341 325 6 91 101 150 186 222 205 5 328 103 130 120 178 215 165 173 166 163 171 146 140 154 117
27 13 183 341 332 351 294 345 330 342 31 33 45 85 107 43 26 10 300 318 316 322 60 102 110 106 56 108 87 60 1 2 94 22 148 225 167 174 175 172 177 158 139 134 128
62 27 355 289 301 349 3 332 292 311 95 333 94 135 132 155 181 243 185 200 236 308 60 28 160 128 49 84 74 62 21 17 37 89 57 74 78 147 115 130 159 169 171 168 167
327 355 98 304 343 34 317 308 304 305 312 111 182 74 310 255 198 217 210 80 326 303 69 86 120 82 184 297 49 29 341 341 125 64 146 190 169 138 135 165 184 187 197 190 159